Regional Weather Roundup
Issued by NWS

Home | Current Version | Previous Version | Graphics & Text | Print | Product List | Glossary On
Versions: 1 2 3 4 5 6 7 8 9 10 11 12 13 14 15 16 17 18 19 20 21 22 23 24 25 26 27 28 29 30 31 32 33 34 35 36 37 38 39 40 41 42 43 44 45 46 47 48 49 50
291
ASUS44 KLIX 011510
RWRLA
LOUISIANA WEATHER ROUNDUP
NATIONAL WEATHER SERVICE NEW ORLEANS LA
900 AM CST SUN FEB 01 2015

NOTE: "FAIR" INDICATES FEW OR NO CLOUDS BELOW 12,000 FEET WITH NO
      SIGNIFICANT WEATHER AND/OR OBSTRUCTIONS TO VISIBILITY.
      SKY/WX - SKY CONDITION AND SIGNIFICANT WEATHER.
      TMP - AIR TEMPERATURE.    DP   - DEWPOINT TEMPERATURE.
      RH  - RELATIVE HUMIDITY.  PRES - PRESSURE.
      HX  - HEAT INDEX.         WCI  - WIND CHILL INDEX.

*  THESE STATIONS ARE NOT NWS OR FAA STATIONS AND ARE NOT UNDER
   NWS QUALITY CONTROL.

LAZ040-048-061>063-065-066-069-011600-
SOUTHEAST LOUISIANA

CITY           SKY/WX    TMP DP  RH WIND       PRES   REMARKS
N.O. AUDUBON     N/A     64  63  96 MISG        N/A
N.O. INTL ARPT PTSUNNY   63  60  90 SE7       30.02R
N.O. LAKEFRONT PTSUNNY   64  59  83 SE10      30.02R
N.O. DOWNTOWN* NOT AVBL
SLIDELL        CLOUDY    62  59  90 S7        30.02F
BATON ROUGE    CLOUDY    61  57  87 E6        29.99F
BOOTHVILLE     LGT RAIN  63  61  93 S13       30.04R FOG
BELLE CHASSE   LGT RAIN  64  60  87 SE7       30.01F
BOGALUSA*        N/A     62  57  85 SE3       30.03F
GALLIANO*      PTSUNNY   62  60  96 E3        30.02S
NEW ROADS*     CLOUDY    60  58  93 SE6       29.99S
GONZALES*      DRIZZLE   60  60 100 SE3       30.00F
HAMMOND*       CLOUDY    63  57  82 S3        30.03S
HOUMA*         NOT AVBL
PORT FOURCHON* MOSUNNY   66  64  94 E7        30.04F

$$

LAZ041-044-053-054-011600-
SOUTHWEST LOUISIANA

CITY           SKY/WX    TMP DP  RH WIND       PRES   REMARKS
LAKE CHARLES   CLOUDY    60  59  96 S3        29.96S FOG
LAFAYETTE      CLOUDY    62  61  96 S3        29.98F
PATTERSON      CLOUDY    63  59  88 CALM      30.02R
SALT POINT       N/A     64  62  93 VRB3      30.00R
NEW IBERIA     CLOUDY    63  61  93 S7        30.00R
CHENAULT AIRPK CLOUDY    59  59 100 S3        29.97S FOG

$$

LAZ027-028-011600-
CENTRAL LOUISIANA

CITY           SKY/WX    TMP DP  RH WIND       PRES   REMARKS
FORT POLK      CLOUDY    60  59  96 S10       29.94R FOG
ALEXANDRIA INT CLOUDY    60  57  89 SE5       29.93F
ALEXANDRIA     CLOUDY    61  57  87 S9        29.94F

$$

LAZ001-002-011600-
NORTHWEST LOUISIANA

CITY           SKY/WX    TMP DP  RH WIND       PRES   REMARKS
SHREVEPORT     CLOUDY    60  58  92 S9        29.87F FOG
BARKSDALE AFB  CLOUDY    59  59 100 S13       29.87F
DTN SHREVEPORT CLOUDY    59  56  89 S12       29.88F

$$

LAZ014-016-011600-
NORTHEAST LOUISIANA

CITY           SKY/WX    TMP DP  RH WIND       PRES   REMARKS
MONROE         CLOUDY    57  54  89 S8        29.93S
TALLULAH       CLOUDY    57  53  86 S12       29.96S

$$




USA.gov is the U.S. government's official web portal to all federal, state and local government web resources and services.